TimeEST,TemperatureF,Dew PointF,Humidity,Sea Level PressureIn,VisibilityMPH,Wind Direction,Wind SpeedMPH,Gust SpeedMPH,PrecipitationIn,Events,Conditions,WindDirDegrees,DateUTC
12:53 AM,39.0,35.1,86,30.11,8.0,ENE,13.8,18.4,N/A,,Overcast,60,2012-12-09 05:53:00
1:53 AM,39.0,35.1,86,30.10,7.0,ENE,12.7,-,N/A,,Overcast,70,2012-12-09 06:53:00
2:53 AM,39.0,35.1,86,30.11,9.0,ENE,10.4,-,N/A,,Overcast,70,2012-12-09 07:53:00
3:42 AM,39.2,35.6,87,30.09,10.0,ENE,12.7,-,N/A,,Overcast,70,2012-12-09 08:42:00
3:53 AM,39.0,35.1,86,30.11,10.0,ENE,10.4,-,N/A,,Overcast,70,2012-12-09 08:53:00
4:53 AM,39.0,35.1,86,30.08,10.0,ENE,15.0,-,N/A,,Overcast,70,2012-12-09 09:53:00
5:53 AM,39.0,35.1,86,30.09,10.0,East,15.0,-,N/A,,Overcast,80,2012-12-09 10:53:00
6:31 AM,39.2,33.8,81,30.05,10.0,East,16.1,-,N/A,,Overcast,80,2012-12-09 11:31:00
6:46 AM,39.2,33.8,81,30.05,10.0,East,15.0,21.9,N/A,,Overcast,80,2012-12-09 11:46:00
6:53 AM,39.0,34.0,82,30.07,10.0,East,18.4,23.0,N/A,,Overcast,80,2012-12-09 11:53:00
7:53 AM,39.0,34.0,82,30.07,10.0,East,12.7,21.9,0.00,Rain,Light Rain,80,2012-12-09 12:53:00
8:53 AM,39.0,34.0,82,30.03,10.0,East,15.0,-,0.00,,Overcast,90,2012-12-09 13:53:00
9:16 AM,39.2,33.8,81,30.00,10.0,East,15.0,-,N/A,,Overcast,90,2012-12-09 14:16:00
9:53 AM,39.0,34.0,82,30.02,10.0,East,12.7,-,N/A,,Overcast,90,2012-12-09 14:53:00
10:53 AM,39.9,35.1,83,30.00,10.0,East,12.7,-,N/A,,Overcast,100,2012-12-09 15:53:00
11:53 AM,41.0,37.0,86,29.95,7.0,ESE,10.4,-,N/A,,Overcast,110,2012-12-09 16:53:00
12:53 PM,42.1,37.9,85,29.90,6.0,ESE,10.4,-,0.00,Rain,Light Rain,110,2012-12-09 17:53:00
1:16 PM,42.8,39.2,87,29.86,3.0,East,4.6,-,0.03,Rain,Rain,90,2012-12-09 18:16:00
1:25 PM,42.8,39.2,87,29.86,2.5,East,5.8,-,0.04,Rain,Light Rain,80,2012-12-09 18:25:00
1:32 PM,42.8,39.2,87,29.86,4.0,East,3.5,-,0.05,Rain,Light Rain,100,2012-12-09 18:32:00
1:53 PM,42.1,39.0,89,29.87,3.0,ENE,3.5,-,0.07,Rain,Light Rain,70,2012-12-09 18:53:00
2:02 PM,42.8,39.2,87,29.85,1.8,Calm,Calm,-,0.00,,Overcast,0,2012-12-09 19:02:00
2:36 PM,42.8,39.2,87,29.82,2.0,ESE,6.9,-,0.00,Rain,Light Rain,110,2012-12-09 19:36:00
2:43 PM,42.8,41.0,93,29.81,1.8,ESE,6.9,-,0.00,Rain,Light Rain,110,2012-12-09 19:43:00
2:53 PM,44.1,41.0,89,29.83,1.5,ESE,8.1,-,0.00,,Overcast,120,2012-12-09 19:53:00
3:18 PM,44.6,42.8,93,29.80,1.5,SE,9.2,-,N/A,,Overcast,130,2012-12-09 20:18:00
3:53 PM,46.0,44.1,93,29.81,1.2,SSE,10.4,-,N/A,,Overcast,150,2012-12-09 20:53:00
4:46 PM,46.4,44.6,93,29.77,2.0,SSE,8.1,-,N/A,,Overcast,160,2012-12-09 21:46:00
4:53 PM,48.0,45.0,89,29.79,2.0,SSE,9.2,-,N/A,,Overcast,160,2012-12-09 21:53:00
5:10 PM,48.2,46.4,93,29.77,3.0,South,8.1,-,N/A,,Overcast,170,2012-12-09 22:10:00
5:29 PM,48.2,46.4,93,29.78,2.5,South,6.9,-,N/A,,Overcast,180,2012-12-09 22:29:00
5:53 PM,48.9,46.9,93,29.78,3.0,Calm,Calm,-,N/A,,Overcast,0,2012-12-09 22:53:00
6:12 PM,51.8,48.2,88,29.76,2.0,South,6.9,-,0.05,Rain,Light Rain,190,2012-12-09 23:12:00
6:23 PM,51.8,48.2,88,29.76,3.0,South,5.8,-,0.05,,Overcast,190,2012-12-09 23:23:00
6:53 PM,51.1,48.9,92,29.75,2.5,SSE,6.9,-,0.05,,Overcast,160,2012-12-09 23:53:00
7:21 PM,51.8,48.2,88,29.72,3.0,SSE,11.5,-,N/A,,Overcast,160,2012-12-10 00:21:00
7:53 PM,54.0,51.1,90,29.74,6.0,South,9.2,-,N/A,,Overcast,190,2012-12-10 00:53:00
8:53 PM,55.9,53.1,90,29.70,9.0,SSW,9.2,-,0.00,,Overcast,200,2012-12-10 01:53:00
9:43 PM,55.4,51.8,88,29.67,5.0,South,5.8,-,0.00,Rain,Light Rain,170,2012-12-10 02:43:00
9:53 PM,54.0,52.0,93,29.68,3.0,SSE,5.8,-,0.01,Rain,Light Rain,160,2012-12-10 02:53:00
10:20 PM,53.6,51.8,94,29.64,2.5,SSE,5.8,-,0.02,Rain,Light Rain,160,2012-12-10 03:20:00
10:37 PM,55.4,53.6,94,29.63,3.0,SSE,4.6,-,0.03,Rain,Light Rain,150,2012-12-10 03:37:00
10:45 PM,55.4,53.6,94,29.63,3.0,ESE,4.6,-,0.04,Rain,Light Rain,120,2012-12-10 03:45:00
10:51 PM,55.4,53.6,94,29.64,2.5,SSE,3.5,-,0.07,Rain,Rain,160,2012-12-10 03:51:00
10:53 PM,55.9,53.1,90,29.65,2.5,SSW,3.5,-,0.07,Rain,Rain,200,2012-12-10 03:53:00
11:00 PM,53.6,53.6,100,29.66,2.0,WNW,9.2,-,0.02,Rain,Rain,290,2012-12-10 04:00:00
11:04 PM,53.6,51.8,94,29.65,1.5,NW,9.2,-,0.06,Rain,Heavy Rain,310,2012-12-10 04:04:00
11:18 PM,53.6,51.8,94,29.65,2.0,NW,9.2,-,0.15,Rain,Rain,320,2012-12-10 04:18:00
11:29 PM,51.8,50.0,94,29.65,3.0,NW,13.8,-,0.20,Rain,Rain,310,2012-12-10 04:29:00
11:42 PM,51.8,48.2,88,29.66,6.0,WNW,8.1,-,0.21,Rain,Light Rain,300,2012-12-10 04:42:00
11:53 PM,51.1,48.9,92,29.66,6.0,WNW,5.8,-,0.21,Rain,Light Rain,290,2012-12-10 04:53:00